SCP
0 0 0 0 0 0 0 0 0 0 0 0 0 0 0 0 0 0 0 0 0 0 0 0 0 0 0 0 0 0 0 0 0 0 0 0 0 0 0 0 0 0 0
0 0 0 0 0 0 0 0 0 0 0 0 0 0 0 0 0 0 0 0 0 0 0 0 0 0 0 0 0 0 0 0 0 0 0 0 0 0 0 0 0 0 0
0 0 0 0 0 0 0 0 0 0 0 0 0 0 0 0 0 0 0 0 0 0 0 0 0 0 0 0 0 0 0 0 0 0 0 0 0 0 0 0 0 0 0
0 0 0 0 0 0 0 0 0 0 0 0 0 0 0 0 0 0 0 0 0 0 0 0 0 0 0 0 0 0 0 0 0 0 0 0 0 0 0 0 0 0 0
0 0 0 0 0 0 0 0 0 0 0 0 0 0 0 0 0 0 0 0 0 0 0 0 0 0 0 0 0 0 0 0 0 0 0 0 0 0 0 0 0 0 0
0 0 0 0 0 0 0 0 0 0 0 0 0 0 0 0 0 0 0 0 0 0 0 0 0 0 0 0 0 0 0 0 0 0 0 0 0 0 0 0 0 0 0
0 0 0 0 0 0 0 0 0 0 0 0 0 0 0 0 0 0 0 0 0 0 0 0 0 0 0 0 0 0 0 0 0 0 0 0 0 0 0 0 0 0 0
0 0 0 0 0 0 0 0 0 0 0 0 0 0 0 0 0 0 0 0 0 0 0 0 0 0 0 0 0 0 0 0 0 0 0 0 0 0 0 0 0 0 0
0 0 0 0 0 0 0 0 0 0 0 0 0 0 0 0 0 0 0 0 0 0 0 0 0 0 0 0 0 0 0 0 0 0 0 0 0 0 0 0 0 0 0
0 0 0 0 0 0 0 0 0 0 0 0 0 0 0 0 0 0 0 0 0 0 0 0 0 0 0 0 0 0 0 0 0 0 0 0 0 0 0 0 0 0 0
0 0 0 0 0 0 0 0 0 0 0 0 0 0 0 0 0 0 0 0 0 0 0 0 0 0 0 0 0 0 0 0 0 0 0 0 0 0 0 0 0 0 0
0 0 0 0 0 0 0 0 0 0 0 0 0 0 0 0 0 0 0 0 0 0 0 0 0 0 0 0 0 0 0 0 0 0 0 0 0 0 0 0 0 0 0
0 0 0 0 0 0 0 0 0 0 0 0 0 0 0 0 0 0 0 0 0 0 0 0 0 0 0 0 0 0 0 0 0 0 0 0 0 0 0 0 0 0 0
0 0 0 0 0 0 0 0 0 0 0 0 0 0 0 0 0 0 0 0 0 0 0 0 0 0 0 0 0 0 0 0 0 0 0 0 0 0 0 0 0 0 0
0 0 0 0 0 0 0 0 0 0 0 0 0 0 0 0 0 0 0 0 0 0 0 0 0 0 0 0 0 0 0 0 0 0 0 0 0 0 0 0 0 0 0
0 0 0 0 0 0 0 0 0 0 0 0 0 0 0 0 0 0 0 0 0 0 0 0 0 0 0 0 0 0 0 0 0 0 0 0 0 0 0 -0 0 0 0
0 0 0 0 0 0 0 0 0 0 0 0 0 0 0 0 0 0 0 0 0 0 0 0 0 0 0 0 0 0 0 0 0 0 0 0 0 0 -0 -0 0 0 0
0 0 0 0 0 0 0 0 0 0 0 0 0 0 0 0 0 0 0 0 0 0 0 0 0 0 0 0 0 0 0 0 0 0 0 0 0 0 0 -0 0 0 0
0 0 0 0 0 0 0 0 0 0 0 0 0 0 0 0 0 0 0 0 0 0 0 0 0 0 -0 -0 -0 0 0 0 0 0 0 0 0 0 0 0 0 -0 -0
0 0 0 0 0 0 0 0 0 0 0 0 0 0 0 0 0 0 0 0 0 0 0 0 0 0 0 0 -0 0 0 0 0 0 0 0 0 0 0 0 0 0 0
0 0 0 0 0 0 0 0 0 0 0 0 0 0 0 0 0 0 0 0 0 0 0 0 0 0 0 0 0 0 0 0 0 0 0 0 0 0 0 0 0 0 0
0 0 0 0 0 0 0 0 0 0 0 0 0 0 0 0 0 0 0 0 0 0 0 0 0 0 0 0 0 0 0 0 0 0 0 0 0 0 0 0 0 0 0
0 0 0 0 0 0 0 0 0 0 0 0 0 0 0 0 0 0 0 0 0 0 0 0 0 0 0 0 0 0 0 0 0 0 0 0 0 0 0 0 0 0 0
0 0 0 0 0 0 0 0 0 0 0 0 0 0 0 0 0 0 0 0 0 0 0 0 0 0 0 0 0 0 0 0 0 0 0 0 0 0 0 0 0 0 0
0 0 0 0 0 0 0 0 0 0 0 0 0 0 0 0 0 0 0 0 0 0 0 0 0 0 0 0 0 0 0 0 0 0 0 0 0 0 0 0 0 0 0
0 0 0 0 0 0 0 0 0 0 0 0 0 0 0 0 0 0 0 0 0 0 0 0 0 0 0 0 0 0 0 0 0 0 0 0 0 0 0 0 0 0 0
Wind_Speed_500mb
74 73 71 72 66 59 55 54 49 46 41 36 30 25 20 16 12 10 9 9 10 12 12 12 15 19 20 23 26 27 31 33 46 61 59 59 57 55 53 46 45 41 41
67 68 68 66 62 60 57 53 48 44 40 34 29 25 20 15 11 9 8 7 10 13 15 16 18 22 23 25 26 32 34 36 42 56 59 59 52 47 50 48 41 38 41
61 64 65 65 63 60 56 52 48 44 39 35 30 24 19 15 12 8 4 5 10 14 17 19 20 22 23 26 30 31 33 35 36 44 55 49 53 47 47 48 51 55 52
61 64 65 62 59 57 55 52 47 43 38 35 30 25 19 15 11 7 3 6 11 15 18 19 19 22 24 26 30 29 35 41 41 41 49 55 54 45 50 59 66 65 62
59 59 59 57 56 55 54 50 47 43 39 34 29 24 21 15 10 6 4 7 11 16 19 20 20 21 19 21 27 33 39 42 44 43 45 53 54 54 55 64 71 70 59
57 58 57 57 58 57 54 51 48 45 40 34 31 27 19 16 13 9 8 9 12 15 18 21 22 19 20 18 21 29 35 42 43 40 41 48 51 53 57 64 68 67 63
56 55 56 58 57 56 54 52 49 44 39 37 32 24 21 18 15 12 10 11 11 16 18 23 24 22 21 21 20 23 30 36 37 39 42 44 51 53 59 63 56 51 52
54 55 58 59 60 57 55 51 47 44 41 34 29 27 23 20 18 15 13 13 12 15 18 23 26 26 23 22 21 22 28 33 33 35 40 43 47 53 58 55 51 49 50
53 53 59 61 62 59 56 50 49 47 41 37 32 28 24 22 18 17 17 14 13 15 17 22 25 27 27 24 21 23 27 32 31 34 37 39 43 49 51 49 48 49 49
47 50 58 60 57 53 45 57 53 47 41 37 34 30 27 23 19 19 20 16 16 15 15 20 23 26 28 26 24 25 28 31 31 31 32 35 42 46 48 48 48 46 43
43 43 62 60 55 51 59 62 53 51 46 40 36 33 28 23 20 21 22 20 17 14 14 18 22 25 27 27 25 23 26 29 29 29 32 37 43 48 49 47 41 37 35
62 62 63 68 70 66 59 61 58 55 48 43 40 35 28 24 23 22 22 21 20 16 17 18 21 24 26 29 26 22 23 25 26 30 34 40 43 48 44 36 31 32 32
64 72 73 74 75 53 69 60 65 63 54 49 44 36 30 25 24 20 19 20 20 19 18 18 21 23 26 29 27 22 21 24 25 30 36 40 48 45 30 21 21 29 27
43 58 67 66 77 71 65 70 75 70 61 54 48 41 32 25 23 19 17 17 18 18 19 17 19 21 27 30 31 24 21 23 24 27 31 41 45 35 22 13 12 21 16
39 47 68 79 81 90 75 74 80 72 59 51 46 37 32 26 20 17 15 13 12 12 17 14 15 20 23 28 31 27 20 20 22 21 27 37 38 27 18 8 11 8 9
49 50 67 83 90 98 85 75 80 71 58 49 43 40 34 29 24 20 17 13 12 12 12 12 15 19 23 28 31 29 22 19 19 18 23 28 26 19 17 17 17 15 13
50 57 62 78 96 101 92 80 89 76 66 58 51 45 39 32 29 24 19 15 12 13 11 13 16 19 22 27 30 32 25 19 18 15 23 19 15 10 15 18 16 15 13
47 55 60 67 84 96 96 94 92 86 74 64 58 52 45 39 34 28 23 20 17 15 15 16 17 19 21 24 28 30 28 21 18 15 19 11 7 2 14 17 16 13 8
38 47 53 56 67 77 89 94 87 79 72 65 60 57 51 44 39 34 28 22 18 18 19 19 19 19 20 22 26 28 28 22 18 15 14 7 3 5 11 12 11 9 7
22 33 39 47 55 66 74 85 86 78 71 64 62 60 55 48 43 35 28 24 22 20 22 21 22 22 20 21 23 26 27 23 19 16 12 8 5 9 13 11 7 4 5
4 12 26 30 41 56 64 78 80 74 69 64 59 58 54 47 41 38 34 30 27 26 27 25 22 25 24 21 22 23 25 24 18 15 14 12 8 13 13 12 9 3 4
13 9 11 15 29 48 61 66 64 61 58 55 54 57 53 47 45 41 37 34 33 32 31 30 26 26 29 25 24 23 22 22 19 16 17 15 13 14 16 13 10 7 3
8 11 23 26 21 23 28 39 46 50 48 46 48 47 48 46 47 45 42 38 37 36 36 35 31 27 32 30 27 24 23 20 18 18 20 18 17 16 18 15 12 9 8
12 14 17 21 28 33 39 43 47 46 47 45 44 48 46 46 46 46 43 42 40 38 38 37 35 33 32 32 30 28 25 21 16 18 22 25 22 22 22 20 17 15 17
10 10 12 16 24 31 34 37 38 39 43 48 51 46 44 47 48 49 50 47 43 39 38 38 36 36 35 34 33 33 33 29 23 24 25 30 28 28 27 25 22 20 22
16 13 15 18 20 22 24 28 33 37 39 41 41 42 46 50 52 52 52 52 49 46 44 45 45 43 41 39 40 38 39 40 34 31 30 33 37 32 33 32 29 27 27
Wind_Direction_500mb
206 207 206 202 199 199 206 205 203 200 201 202 202 203 205 210 217 230 247 268 289 306 322 327 323 315 313 313 314 314 310 309 299 306 314 318 328 333 334 330 329 329 327
203 202 200 197 197 200 199 196 196 196 197 197 197 197 198 200 205 218 239 270 302 319 319 316 313 308 310 310 311 313 312 309 303 304 316 325 333 339 331 327 334 333 327
203 201 197 195 198 194 192 192 192 193 194 192 191 192 193 194 199 208 240 298 317 319 317 311 307 305 309 311 313 314 320 318 313 308 313 324 325 333 332 328 331 331 331
203 199 197 195 194 193 191 191 192 190 191 189 189 190 193 198 200 206 243 313 322 325 322 317 310 308 313 319 323 328 328 328 323 316 318 319 325 338 336 334 333 334 335
202 199 198 197 193 191 190 190 189 189 188 190 191 195 198 196 204 220 266 305 320 325 329 327 318 309 313 320 322 337 333 325 327 322 319 318 322 328 334 333 329 330 338
205 204 200 196 193 192 191 191 190 190 191 193 198 198 197 205 210 226 261 294 310 321 329 331 325 304 292 302 312 323 324 326 324 326 323 313 324 321 325 324 328 330 332
211 209 203 200 197 195 194 194 194 194 196 200 200 197 205 210 218 232 253 278 299 310 328 333 334 322 305 294 301 319 325 322 320 313 312 314 315 319 318 322 327 331 329
219 214 208 206 203 199 198 197 197 201 204 202 201 205 207 214 224 240 251 267 287 299 322 330 334 334 325 313 303 318 326 317 308 309 303 308 308 310 310 314 320 322 327
230 223 216 211 208 203 201 203 206 208 204 206 207 208 212 220 229 244 254 264 273 292 313 327 332 338 339 325 314 320 325 320 310 312 310 307 312 312 311 314 316 318 320
243 237 225 219 214 209 217 220 212 208 210 209 209 209 215 223 229 242 254 260 271 287 314 319 328 339 343 335 312 314 328 326 320 318 317 317 319 319 319 319 319 317 315
245 246 234 221 213 219 227 223 213 212 208 208 210 213 219 228 237 244 251 261 264 279 295 306 327 336 344 341 320 313 328 323 327 328 325 325 326 324 321 322 324 322 322
238 233 234 224 222 227 225 226 218 216 212 209 211 215 223 230 238 241 247 256 266 275 282 300 320 332 344 343 331 306 311 316 323 328 331 333 332 328 325 330 338 339 341
246 246 226 229 227 223 220 227 224 217 210 209 213 217 225 228 235 238 243 253 267 274 281 298 311 330 343 347 339 316 300 306 315 325 332 339 337 330 333 344 358 12 8
253 243 240 232 228 227 218 224 229 218 209 210 216 218 218 222 232 236 244 255 266 280 282 293 312 330 342 346 346 332 309 310 310 321 334 345 339 341 353 345 350 355 15
258 237 229 225 225 229 222 220 228 221 217 219 223 219 216 215 220 224 235 248 266 285 289 306 322 327 339 343 347 344 324 310 315 328 341 351 340 356 3 9 21 51 94
266 239 227 225 220 218 226 220 224 217 214 215 218 215 205 205 209 215 224 239 263 279 295 333 330 328 336 343 348 351 333 314 315 325 345 350 340 15 41 68 80 95 105
262 252 234 228 227 221 218 216 216 209 208 210 213 208 204 205 209 211 217 231 257 282 308 320 324 326 334 339 347 348 339 315 307 330 338 341 340 31 73 84 96 107 102
260 249 241 235 231 228 225 221 212 207 205 210 208 206 204 206 209 211 221 238 257 283 310 314 308 319 332 335 342 346 337 319 305 325 321 321 334 71 106 107 109 101 81
261 242 235 234 235 230 225 218 211 206 216 213 206 207 205 206 210 215 223 239 254 274 287 298 306 309 319 332 333 339 338 323 305 307 304 285 293 187 125 123 125 100 54
264 236 230 232 231 227 223 213 206 209 212 209 208 210 207 207 214 220 229 234 245 261 274 282 294 302 305 315 323 327 334 323 305 294 268 249 225 218 165 150 156 125 8
305 235 222 223 233 227 213 204 204 208 206 206 207 211 212 213 217 221 226 236 248 260 267 273 283 293 298 298 307 313 325 323 300 286 248 237 215 220 208 185 189 221 337
192 176 145 167 195 197 194 195 197 199 201 204 208 216 219 218 223 226 231 237 244 253 260 268 279 289 292 290 288 298 310 316 296 270 236 236 230 227 218 212 218 240 227
239 189 191 201 198 193 186 188 192 196 197 204 212 221 229 226 230 234 236 239 241 245 254 262 269 277 281 285 281 284 292 299 288 253 225 230 235 229 235 219 226 238 212
265 246 221 210 208 210 207 208 211 213 213 213 218 222 227 227 228 232 232 232 235 241 248 258 266 271 273 276 275 270 268 275 270 241 228 228 238 228 232 231 224 221 214
258 244 237 223 214 218 219 216 216 219 220 220 222 226 237 242 239 238 240 242 243 245 249 253 259 264 267 266 268 263 255 251 246 242 237 236 236 232 226 229 227 224 224
289 273 251 243 233 231 227 223 223 224 226 231 234 238 241 247 251 246 246 251 254 255 255 257 258 259 262 262 258 254 252 249 240 238 240 238 234 240 232 231 228 226 219
Wind_Speed_850mb
74 73 71 72 66 59 55 54 49 46 41 36 30 25 20 16 12 10 9 9 10 12 12 12 15 19 20 23 26 27 31 33 46 61 59 59 57 55 53 46 45 41 41
67 68 68 66 62 60 57 53 48 44 40 34 29 25 20 15 11 9 8 7 10 13 15 16 18 22 23 25 26 32 34 36 42 56 59 59 52 47 50 48 41 38 41
61 64 65 65 63 60 56 52 48 44 39 35 30 24 19 15 12 8 4 5 10 14 17 19 20 22 23 26 30 31 33 35 36 44 55 49 53 47 47 48 51 55 52
61 64 65 62 59 57 55 52 47 43 38 35 30 25 19 15 11 7 3 6 11 15 18 19 19 22 24 26 30 29 35 41 41 41 49 55 54 45 50 59 66 65 62
59 59 59 57 56 55 54 50 47 43 39 34 29 24 21 15 10 6 4 7 11 16 19 20 20 21 19 21 27 33 39 42 44 43 45 53 54 54 55 64 71 70 59
57 58 57 57 58 57 54 51 48 45 40 34 31 27 19 16 13 9 8 9 12 15 18 21 22 19 20 18 21 29 35 42 43 40 41 48 51 53 57 64 68 67 63
56 55 56 58 57 56 54 52 49 44 39 37 32 24 21 18 15 12 10 11 11 16 18 23 24 22 21 21 20 23 30 36 37 39 42 44 51 53 59 63 56 51 52
54 55 58 59 60 57 55 51 47 44 41 34 29 27 23 20 18 15 13 13 12 15 18 23 26 26 23 22 21 22 28 33 33 35 40 43 47 53 58 55 51 49 50
53 53 59 61 62 59 56 50 49 47 41 37 32 28 24 22 18 17 17 14 13 15 17 22 25 27 27 24 21 23 27 32 31 34 37 39 43 49 51 49 48 49 49
47 50 58 60 57 53 45 57 53 47 41 37 34 30 27 23 19 19 20 16 16 15 15 20 23 26 28 26 24 25 28 31 31 31 32 35 42 46 48 48 48 46 43
43 43 62 60 55 51 59 62 53 51 46 40 36 33 28 23 20 21 22 20 17 14 14 18 22 25 27 27 25 23 26 29 29 29 32 37 43 48 49 47 41 37 35
62 62 63 68 70 66 59 61 58 55 48 43 40 35 28 24 23 22 22 21 20 16 17 18 21 24 26 29 26 22 23 25 26 30 34 40 43 48 44 36 31 32 32
64 72 73 74 75 53 69 60 65 63 54 49 44 36 30 25 24 20 19 20 20 19 18 18 21 23 26 29 27 22 21 24 25 30 36 40 48 45 30 21 21 29 27
43 58 67 66 77 71 65 70 75 70 61 54 48 41 32 25 23 19 17 17 18 18 19 17 19 21 27 30 31 24 21 23 24 27 31 41 45 35 22 13 12 21 16
39 47 68 79 81 90 75 74 80 72 59 51 46 37 32 26 20 17 15 13 12 12 17 14 15 20 23 28 31 27 20 20 22 21 27 37 38 27 18 8 11 8 9
49 50 67 83 90 98 85 75 80 71 58 49 43 40 34 29 24 20 17 13 12 12 12 12 15 19 23 28 31 29 22 19 19 18 23 28 26 19 17 17 17 15 13
50 57 62 78 96 101 92 80 89 76 66 58 51 45 39 32 29 24 19 15 12 13 11 13 16 19 22 27 30 32 25 19 18 15 23 19 15 10 15 18 16 15 13
47 55 60 67 84 96 96 94 92 86 74 64 58 52 45 39 34 28 23 20 17 15 15 16 17 19 21 24 28 30 28 21 18 15 19 11 7 2 14 17 16 13 8
38 47 53 56 67 77 89 94 87 79 72 65 60 57 51 44 39 34 28 22 18 18 19 19 19 19 20 22 26 28 28 22 18 15 14 7 3 5 11 12 11 9 7
22 33 39 47 55 66 74 85 86 78 71 64 62 60 55 48 43 35 28 24 22 20 22 21 22 22 20 21 23 26 27 23 19 16 12 8 5 9 13 11 7 4 5
4 12 26 30 41 56 64 78 80 74 69 64 59 58 54 47 41 38 34 30 27 26 27 25 22 25 24 21 22 23 25 24 18 15 14 12 8 13 13 12 9 3 4
13 9 11 15 29 48 61 66 64 61 58 55 54 57 53 47 45 41 37 34 33 32 31 30 26 26 29 25 24 23 22 22 19 16 17 15 13 14 16 13 10 7 3
8 11 23 26 21 23 28 39 46 50 48 46 48 47 48 46 47 45 42 38 37 36 36 35 31 27 32 30 27 24 23 20 18 18 20 18 17 16 18 15 12 9 8
12 14 17 21 28 33 39 43 47 46 47 45 44 48 46 46 46 46 43 42 40 38 38 37 35 33 32 32 30 28 25 21 16 18 22 25 22 22 22 20 17 15 17
10 10 12 16 24 31 34 37 38 39 43 48 51 46 44 47 48 49 50 47 43 39 38 38 36 36 35 34 33 33 33 29 23 24 25 30 28 28 27 25 22 20 22
16 13 15 18 20 22 24 28 33 37 39 41 41 42 46 50 52 52 52 52 49 46 44 45 45 43 41 39 40 38 39 40 34 31 30 33 37 32 33 32 29 27 27
Wind_Direction_850mb
206 207 206 202 199 199 206 205 203 200 201 202 202 203 205 210 217 230 247 268 289 306 322 327 323 315 313 313 314 314 310 309 299 306 314 318 328 333 334 330 329 329 327
203 202 200 197 197 200 199 196 196 196 197 197 197 197 198 200 205 218 239 270 302 319 319 316 313 308 310 310 311 313 312 309 303 304 316 325 333 339 331 327 334 333 327
203 201 197 195 198 194 192 192 192 193 194 192 191 192 193 194 199 208 240 298 317 319 317 311 307 305 309 311 313 314 320 318 313 308 313 324 325 333 332 328 331 331 331
203 199 197 195 194 193 191 191 192 190 191 189 189 190 193 198 200 206 243 313 322 325 322 317 310 308 313 319 323 328 328 328 323 316 318 319 325 338 336 334 333 334 335
202 199 198 197 193 191 190 190 189 189 188 190 191 195 198 196 204 220 266 305 320 325 329 327 318 309 313 320 322 337 333 325 327 322 319 318 322 328 334 333 329 330 338
205 204 200 196 193 192 191 191 190 190 191 193 198 198 197 205 210 226 261 294 310 321 329 331 325 304 292 302 312 323 324 326 324 326 323 313 324 321 325 324 328 330 332
211 209 203 200 197 195 194 194 194 194 196 200 200 197 205 210 218 232 253 278 299 310 328 333 334 322 305 294 301 319 325 322 320 313 312 314 315 319 318 322 327 331 329
219 214 208 206 203 199 198 197 197 201 204 202 201 205 207 214 224 240 251 267 287 299 322 330 334 334 325 313 303 318 326 317 308 309 303 308 308 310 310 314 320 322 327
230 223 216 211 208 203 201 203 206 208 204 206 207 208 212 220 229 244 254 264 273 292 313 327 332 338 339 325 314 320 325 320 310 312 310 307 312 312 311 314 316 318 320
243 237 225 219 214 209 217 220 212 208 210 209 209 209 215 223 229 242 254 260 271 287 314 319 328 339 343 335 312 314 328 326 320 318 317 317 319 319 319 319 319 317 315
245 246 234 221 213 219 227 223 213 212 208 208 210 213 219 228 237 244 251 261 264 279 295 306 327 336 344 341 320 313 328 323 327 328 325 325 326 324 321 322 324 322 322
238 233 234 224 222 227 225 226 218 216 212 209 211 215 223 230 238 241 247 256 266 275 282 300 320 332 344 343 331 306 311 316 323 328 331 333 332 328 325 330 338 339 341
246 246 226 229 227 223 220 227 224 217 210 209 213 217 225 228 235 238 243 253 267 274 281 298 311 330 343 347 339 316 300 306 315 325 332 339 337 330 333 344 358 12 8
253 243 240 232 228 227 218 224 229 218 209 210 216 218 218 222 232 236 244 255 266 280 282 293 312 330 342 346 346 332 309 310 310 321 334 345 339 341 353 345 350 355 15
258 237 229 225 225 229 222 220 228 221 217 219 223 219 216 215 220 224 235 248 266 285 289 306 322 327 339 343 347 344 324 310 315 328 341 351 340 356 3 9 21 51 94
266 239 227 225 220 218 226 220 224 217 214 215 218 215 205 205 209 215 224 239 263 279 295 333 330 328 336 343 348 351 333 314 315 325 345 350 340 15 41 68 80 95 105
262 252 234 228 227 221 218 216 216 209 208 210 213 208 204 205 209 211 217 231 257 282 308 320 324 326 334 339 347 348 339 315 307 330 338 341 340 31 73 84 96 107 102
260 249 241 235 231 228 225 221 212 207 205 210 208 206 204 206 209 211 221 238 257 283 310 314 308 319 332 335 342 346 337 319 305 325 321 321 334 71 106 107 109 101 81
261 242 235 234 235 230 225 218 211 206 216 213 206 207 205 206 210 215 223 239 254 274 287 298 306 309 319 332 333 339 338 323 305 307 304 285 293 187 125 123 125 100 54
264 236 230 232 231 227 223 213 206 209 212 209 208 210 207 207 214 220 229 234 245 261 274 282 294 302 305 315 323 327 334 323 305 294 268 249 225 218 165 150 156 125 8
305 235 222 223 233 227 213 204 204 208 206 206 207 211 212 213 217 221 226 236 248 260 267 273 283 293 298 298 307 313 325 323 300 286 248 237 215 220 208 185 189 221 337
192 176 145 167 195 197 194 195 197 199 201 204 208 216 219 218 223 226 231 237 244 253 260 268 279 289 292 290 288 298 310 316 296 270 236 236 230 227 218 212 218 240 227
239 189 191 201 198 193 186 188 192 196 197 204 212 221 229 226 230 234 236 239 241 245 254 262 269 277 281 285 281 284 292 299 288 253 225 230 235 229 235 219 226 238 212
265 246 221 210 208 210 207 208 211 213 213 213 218 222 227 227 228 232 232 232 235 241 248 258 266 271 273 276 275 270 268 275 270 241 228 228 238 228 232 231 224 221 214
258 244 237 223 214 218 219 216 216 219 220 220 222 226 237 242 239 238 240 242 243 245 249 253 259 264 267 266 268 263 255 251 246 242 237 236 236 232 226 229 227 224 224
289 273 251 243 233 231 227 223 223 224 226 231 234 238 241 247 251 246 246 251 254 255 255 257 258 259 262 262 258 254 252 249 240 238 240 238 234 240 232 231 228 226 219